SV2MJJ Weather Reports


Display with metric or nautical units.
time (UTC)temp
F
wind
direction
speed
MPH
gust
MPH
rain 1hr
in
rain 24hr
in
rain mn
in
humidity
%
barometer
mb
20210730194534 88 21 0.0 0.0 0.00 0.00 0.00 36 1005.4
20210730194040 88 36 0.0 0.0 0.00 0.00 0.00 40 1005.4
20210730193543 88 49 0.0 0.0 0.00 0.00 0.00 42 1005.4
20210730193048 88 49 0.0 0.0 0.00 0.00 0.00 39 1005.4
20210730192548 89 49 0.0 0.0 0.00 0.00 0.00 41 1005.4
20210730192034 89 49 0.0 0.0 0.00 0.00 0.00 43 1005.4
20210730191536 89 49 0.0 0.0 0.00 0.00 0.00 42 1005.4
20210730191102 89 49 0.0 0.0 0.00 0.00 0.00 43 1005.3
20210730190542 90 49 0.0 0.0 0.00 0.00 0.00 44 1005.3
20210730190045 90 49 0.0 0.0 0.00 0.00 0.00 48 1005.3
20210730185542 90 49 0.0 0.0 0.00 0.00 0.00 43 1005.3
20210730185046 90 49 0.0 0.0 0.00 0.00 0.00 42 1005.3
20210730184551 90 49 0.0 0.0 0.00 0.00 0.00 46 1005.2
20210730184051 90 49 0.0 0.0 0.00 0.00 0.00 46 1005.2
20210730183548 90 49 0.0 0.0 0.00 0.00 0.00 48 1005.0
20210730183050 90 49 0.0 0.0 0.00 0.00 0.00 55 1004.9
20210730182538 91 49 0.0 0.0 0.00 0.00 0.00 53 1004.9
20210730182035 91 49 0.0 0.0 0.00 0.00 0.00 52 1004.8
20210730181542 92 49 0.0 0.0 0.00 0.00 0.00 54 1004.7
20210730181044 92 49 0.0 0.0 0.00 0.00 0.00 54 1004.7
20210730180543 92 49 0.0 0.0 0.00 0.00 0.00 54 1004.7
20210730180049 93 49 0.0 0.0 0.00 0.00 0.00 54 1004.6
20210730175554 93 49 0.0 0.0 0.00 0.00 0.00 52 1004.5
20210730175054 93 49 0.0 0.0 0.00 0.00 0.00 52 1004.5
20210730174536 93 49 0.0 0.0 0.00 0.00 0.00 52 1004.5
20210730174043 93 49 0.0 0.0 0.00 0.00 0.00 52 1004.5
20210730173538 93 49 0.0 0.0 0.00 0.00 0.00 52 1004.4
20210730173040 93 49 0.0 0.0 0.00 0.00 0.00 52 1004.5
20210730172547 93 51 0.0 0.0 0.00 0.00 0.00 52 1004.4
20210730172050 93 53 0.0 0.0 0.00 0.00 0.00 52 1004.4
20210730171549 93 53 0.0 0.0 0.00 0.00 0.00 52 1004.4
20210730171036 94 52 0.0 0.0 0.00 0.00 0.00 52 1004.3
20210730170540 94 54 0.0 0.0 0.00 0.00 0.00 51 1004.3
20210730170036 95 54 0.0 0.0 0.00 0.00 0.00 51 1004.3
20210730165545 95 43 0.0 0.0 0.00 0.00 0.00 50 1004.3
20210730165052 95 42 0.0 0.0 0.00 0.00 0.00 50 1004.3
20210730164547 96 32 0.0 0.0 0.00 0.00 0.00 49 1004.4
20210730164036 96 42 0.0 0.0 0.00 0.00 0.00 49 1004.2
20210730163544 97 40 0.0 0.0 0.00 0.00 0.00 49 1004.1
20210730163038 97 60 0.0 0.0 0.00 0.00 0.00 49 1004.0
20210730162545 98 53 0.0 0.0 0.00 0.00 0.00 48 1003.9
20210730162051 98 69 0.0 0.0 0.00 0.00 0.00 46 1003.8
20210730161548 99 57 0.0 0.0 0.00 0.00 0.00 45 1003.9
20210730161034 99 59 0.0 0.0 0.00 0.00 0.00 44 1003.8
20210730160543 100 64 0.0 0.0 0.00 0.00 0.00 44 1003.8
20210730160040 100 55 0.0 0.0 0.00 0.00 0.00 42 1003.8
20210730155547 100 59 0.0 0.0 0.00 0.00 0.00 42 1003.8
20210730155053 101 60 0.0 0.0 0.00 0.00 0.00 40 1003.8
20210730154602 101 59 0.0 0.0 0.00 0.00 0.00 39 1003.8
20210730154035 101 61 0.0 0.0 0.00 0.00 0.00 38 1003.8
20210730153545 102 61 0.0 0.0 0.00 0.00 0.00 37 1003.8
20210730153039 102 62 0.0 0.0 0.00 0.00 0.00 37 1003.9
20210730152549 102 64 0.0 0.0 0.00 0.00 0.00 37 1003.9
20210730152049 102 64 0.0 0.0 0.00 0.00 0.00 35 1004.0
20210730151558 102 64 0.0 0.0 0.00 0.00 0.00 37 1004.0
20210730151035 102 66 0.0 0.0 0.00 0.00 0.00 35 1004.1
20210730150548 102 70 0.0 0.0 0.00 0.00 0.00 35 1004.0
20210730150053 103 80 0.0 0.0 0.00 0.00 0.00 36 1004.0
20210730145552 103 130 0.0 0.0 0.00 0.00 0.00 34 1004.1
20210730145036 103 130 0.0 0.0 0.00 0.00 0.00 34 1004.1
20210730144544 103 130 0.0 0.0 0.00 0.00 0.00 34 1004.2
20210730144038 104 135 0.0 0.0 0.00 0.00 0.00 31 1004.1
20210730143547 104 135 0.0 0.0 0.00 0.00 0.00 34 1004.2
20210730143048 104 139 0.0 0.0 0.00 0.00 0.00 35 1004.3
20210730142546 104 139 0.0 0.0 0.00 0.00 0.00 36 1004.3
20210730142052 104 139 0.0 0.0 0.00 0.00 0.00 35 1004.3
20210730141556 104 140 0.0 0.0 0.00 0.00 0.00 35 1004.4
20210730141034 104 142 0.0 0.0 0.00 0.00 0.00 33 1004.3
20210730140542 104 142 0.0 0.0 0.00 0.00 0.00 37 1004.5
20210730140045 104 142 0.0 0.0 0.00 0.00 0.00 36 1004.5
20210730135546 104 142 0.0 0.0 0.00 0.00 0.00 36 1004.5
20210730135053 104 142 0.0 0.0 0.00 0.00 0.00 38 1004.7
20210730134540 103 142 0.0 0.0 0.00 0.00 0.00 39 1004.8
20210730134034 103 142 0.0 0.0 0.00 0.00 0.00 39 1004.8
20210730133544 103 142 0.0 0.0 0.00 0.00 0.00 39 1004.7
20210730133049 103 142 0.0 0.0 0.00 0.00 0.00 39 1004.7
20210730132547 103 142 0.0 0.0 0.00 0.00 0.00 38 1004.8
20210730132051 103 142 0.0 0.0 0.00 0.00 0.00 39 1004.9
20210730131539 103 142 0.0 0.0 0.00 0.00 0.00 39 1005.0
20210730131037 103 155 0.0 0.0 0.00 0.00 0.00 38 1004.9
20210730130544 102 158 0.0 0.0 0.00 0.00 0.00 38 1004.9
20210730130047 102 158 0.0 0.0 0.00 0.00 0.00 38 1005.0
20210730125557 102 163 0.0 0.0 0.00 0.00 0.00 37 1005.1
20210730125053 102 163 0.0 0.0 0.00 0.00 0.00 37 1005.2
20210730124545 102 163 0.0 0.0 0.00 0.00 0.00 37 1005.4
20210730124040 102 165 0.0 0.0 0.00 0.00 0.00 37 1005.4
20210730123545 101 163 0.0 0.0 0.00 0.00 0.00 36 1005.4
20210730123052 101 163 0.0 0.0 0.00 0.00 0.00 36 1005.5
20210730122600 100 164 0.0 0.0 0.00 0.00 0.00 35 1005.6
20210730122035 100 165 0.0 0.0 0.00 0.00 0.00 35 1005.7
20210730121536 100 164 0.0 0.0 0.00 0.00 0.00 34 1005.8
20210730121042 99 161 0.0 0.0 0.00 0.00 0.00 33 1005.9
20210730120551 99 161 0.0 0.0 0.00 0.00 0.00 34 1006.0
20210730120045 99 155 0.0 0.0 0.00 0.00 0.00 33 1006.0
20210730115553 99 154 0.0 0.0 0.00 0.00 0.00 34 1006.0
20210730115039 99 132 0.0 0.0 0.00 0.00 0.00 37 1006.0
20210730114536 100 121 0.0 0.0 0.00 0.00 0.00 39 1006.1
20210730114058 100 114 0.0 0.0 0.00 0.00 0.00 38 1006.1
20210730113537 101 101 0.0 0.0 0.00 0.00 0.00 35 1006.3
20210730113041 101 84 0.0 0.0 0.00 0.00 0.00 33 1006.4
20210730112547 100 85 0.0 0.0 0.00 0.00 0.00 34 1006.4
20210730112053 100 84 0.0 0.0 0.00 0.00 0.00 31 1006.5
20210730111552 100 80 0.0 0.0 0.00 0.00 0.00 33 1006.5
20210730111037 99 79 0.0 0.0 0.00 0.00 0.00 34 1006.7
20210730110542 99 79 0.0 0.0 0.00 0.00 0.00 34 1006.8
20210730110048 99 79 0.0 0.0 0.00 0.00 0.00 37 1006.9
20210730105543 98 78 0.0 0.0 0.00 0.00 0.00 40 1006.9
20210730105048 98 78 0.0 0.0 0.00 0.00 0.00 41 1007.0
20210730104539 98 77 0.0 0.0 0.00 0.00 0.00 41 1007.0
20210730104100 97 74 0.0 0.0 0.00 0.00 0.00 42 1007.1
20210730103534 97 74 0.0 0.0 0.00 0.00 0.00 42 1007.1
20210730103038 97 32 0.0 0.0 0.00 0.00 0.00 43 1007.2
20210730102545 97 29 0.0 0.0 0.00 0.00 0.00 42 1007.3
20210730102047 97 21 0.0 0.0 0.00 0.00 0.00 43 1007.3
20210730101544 96 21 0.0 0.0 0.00 0.00 0.00 42 1007.3
20210730101048 97 18 0.0 0.0 0.00 0.00 0.00 42 1007.3
20210730100536 96 15 0.0 0.0 0.00 0.00 0.00 44 1007.3
20210730100052 96 14 0.0 0.0 0.00 0.00 0.00 44 1007.4
20210730095602 96 13 0.0 0.0 0.00 0.00 0.00 44 1007.4
20210730095044 96 9 0.0 0.0 0.00 0.00 0.00 43 1007.5
20210730094547 96 1 0.0 0.0 0.00 0.00 0.00 42 1007.4
20210730094052 96 1 0.0 0.0 0.00 0.00 0.00 43 1007.5
20210730093600 95 356 0.0 0.0 0.00 0.00 0.00 44 1007.5
20210730093036 95 356 0.0 0.0 0.00 0.00 0.00 44 1007.6
20210730092544 94 356 0.0 0.0 0.00 0.00 0.00 45 1007.6
20210730092040 94 356 0.0 0.0 0.00 0.00 0.00 46 1007.7
20210730091551 94 356 0.0 0.0 0.00 0.00 0.00 46 1007.8
20210730091036 93 356 0.0 0.0 0.00 0.00 0.00 47 1007.9
20210730090534 93 351 0.0 0.0 0.00 0.00 0.00 46 1008.0
20210730090042 93 351 0.0 0.0 0.00 0.00 0.00 46 1008.0
20210730085547 93 347 0.0 0.0 0.00 0.00 0.00 47 1008.2
20210730085054 93 340 0.0 0.0 0.00 0.00 0.00 48 1008.2
20210730084534 92 340 0.0 0.0 0.00 0.00 0.00 46 1008.2
20210730084043 92 340 0.0 0.0 0.00 0.00 0.00 46 1008.2
20210730083538 92 315 0.0 0.0 0.00 0.00 0.00 48 1008.4
20210730083045 92 316 0.0 0.0 0.00 0.00 0.00 50 1008.5
20210730082537 91 316 0.0 0.0 0.00 0.00 0.00 51 1008.4
20210730082034 91 318 0.0 0.0 0.00 0.00 0.00 52 1008.5
20210730081544 91 319 0.0 0.0 0.00 0.00 0.00 52 1008.4
20210730081053 91 322 0.0 0.0 0.00 0.00 0.00 51 1008.6
20210730080535 91 321 0.0 0.0 0.00 0.00 0.00 48 1008.6
20210730080040 90 321 0.0 0.0 0.00 0.00 0.00 49 1008.5
20210730075547 90 321 0.0 0.0 0.00 0.00 0.00 51 1008.5
20210730075057 89 321 0.0 0.0 0.00 0.00 0.00 53 1008.6
20210730074533 89 322 0.0 0.0 0.00 0.00 0.00 54 1008.6
20210730074043 89 322 0.0 0.0 0.00 0.00 0.00 56 1008.8
20210730073555 88 321 0.0 0.0 0.00 0.00 0.00 57 1008.8
20210730073034 88 321 0.0 0.0 0.00 0.00 0.00 58 1008.8
20210730072542 88 321 0.0 0.0 0.00 0.00 0.00 60 1008.8
20210730072040 87 321 0.0 0.0 0.00 0.00 0.00 60 1008.9
20210730071547 87 321 0.0 0.0 0.00 0.00 0.00 61 1008.8
20210730071051 86 321 0.0 0.0 0.00 0.00 0.00 63 1008.9
20210730070601 86 321 0.0 0.0 0.00 0.00 0.00 64 1008.9
20210730070040 86 321 0.0 0.0 0.00 0.00 0.00 64 1009.0
20210730065550 87 321 0.0 0.0 0.00 0.00 0.00 62 1008.9
20210730065042 86 321 0.0 0.0 0.00 0.00 0.00 60 1008.9
20210730064553 86 321 0.0 0.0 0.00 0.00 0.00 61 1008.9
20210730064036 86 321 0.0 0.0 0.00 0.00 0.00 61 1008.9
20210730063601 86 321 0.0 0.0 0.00 0.00 0.00 62 1008.9
20210730063039 85 321 0.0 0.0 0.00 0.00 0.00 62 1008.9
20210730062548 85 321 0.0 0.0 0.00 0.00 0.00 62 1008.9
20210730062038 85 321 0.0 0.0 0.00 0.00 0.00 62 1008.9
20210730061546 85 321 0.0 0.0 0.00 0.00 0.00 62 1009.0
20210730061035 85 321 0.0 0.0 0.00 0.00 0.00 62 1009.0
20210730060534 84 321 0.0 0.0 0.00 0.00 0.00 62 1009.0
20210730060035 84 321 0.0 0.0 0.00 0.00 0.00 63 1009.0
20210730055545 84 321 0.0 0.0 0.00 0.00 0.00 62 1009.1
20210730055053 84 321 0.0 0.0 0.00 0.00 0.00 63 1009.0
20210730054548 84 321 0.0 0.0 0.00 0.00 0.00 63 1009.0
20210730054037 83 321 0.0 0.0 0.00 0.00 0.00 63 1009.0
20210730053535 83 321 0.0 0.0 0.00 0.00 0.00 62 1008.9
20210730053043 83 321 0.0 0.0 0.00 0.00 0.00 62 1008.9
20210730052546 82 321 0.0 0.0 0.00 0.00 0.00 61 1008.9
20210730052056 82 321 0.0 0.0 0.00 0.00 0.00 56 1008.9
20210730051536 81 321 0.0 0.0 0.00 0.00 0.00 53 1008.8
20210730051038 80 321 0.0 0.0 0.00 0.00 0.00 51 1008.7
20210730050536 80 321 0.0 0.0 0.00 0.00 0.00 52 1008.8
20210730050041 80 321 0.0 0.0 0.00 0.00 0.00 51 1008.8
20210730045546 79 321 0.0 0.0 0.00 0.00 0.00 49 1008.8
20210730045052 79 321 0.0 0.0 0.00 0.00 0.00 52 1008.7
20210730044534 79 321 0.0 0.0 0.00 0.00 0.00 48 1008.7
20210730044040 78 321 0.0 0.0 0.00 0.00 0.00 46 1008.7
20210730043545 78 321 0.0 0.0 0.00 0.00 0.00 44 1008.6
20210730043043 78 321 0.0 0.0 0.00 0.00 0.00 43 1008.7
20210730042535 78 322 0.0 0.0 0.00 0.00 0.00 43 1008.6
20210730042101 78 322 0.0 0.0 0.00 0.00 0.00 42 1008.6
20210730041538 78 322 0.0 0.0 0.00 0.00 0.00 42 1008.6
20210730041047 78 323 0.0 0.0 0.00 0.00 0.00 42 1008.7
20210730040555 78 325 0.0 0.0 0.00 0.00 0.00 43 1008.6
20210730040050 77 340 0.0 0.0 0.00 0.00 0.00 43 1008.6
20210730035540 77 356 0.0 0.0 0.00 0.00 0.00 45 1008.5
20210730035049 77 356 0.0 0.0 0.00 0.00 0.00 46 1008.6
20210730034545 77 356 0.0 0.0 0.00 0.00 0.00 47 1008.6
20210730034035 77 356 0.0 0.0 0.00 0.00 0.00 47 1008.6
20210730033544 76 356 0.0 0.0 0.00 0.00 0.00 48 1008.7
20210730033040 76 356 0.0 0.0 0.00 0.00 0.00 49 1008.7
20210730032544 76 5 0.0 0.0 0.00 0.00 0.00 50 1008.7
20210730032051 76 5 0.0 0.0 0.00 0.00 0.00 51 1008.7
20210730031550 76 5 0.0 0.0 0.00 0.00 0.00 53 1008.7
20210730031034 76 5 0.0 0.0 0.00 0.00 0.00 54 1008.6
20210730030535 76 5 0.0 0.0 0.00 0.00 0.00 54 1008.6
20210730030044 77 5 0.0 0.0 0.00 0.00 0.00 53 1008.6
20210730025535 77 5 0.0 0.0 0.00 0.00 0.00 54 1008.5
20210730025100 77 1 0.0 0.0 0.00 0.00 0.00 56 1008.4
20210730024541 77 1 0.0 0.0 0.00 0.00 0.00 56 1008.5
20210730024050 77 1 0.0 0.0 0.00 0.00 0.00 54 1008.5
20210730023544 77 1 0.0 0.0 0.00 0.00 0.00 55 1008.5
20210730023051 77 1 0.0 0.0 0.00 0.00 0.00 53 1008.4
20210730022541 77 26 0.0 0.0 0.00 0.00 0.00 52 1008.5
20210730022034 77 28 0.0 0.0 0.00 0.00 0.00 51 1008.5
20210730021545 78 28 0.0 0.0 0.00 0.00 0.00 53 1008.5
20210730021035 78 28 0.0 0.0 0.00 0.00 0.00 51 1008.5
20210730020536 78 28 0.0 0.0 0.00 0.00 0.00 52 1008.5
20210730020039 78 29 0.0 0.0 0.00 0.00 0.00 51 1008.5
20210730015547 77 29 0.0 0.0 0.00 0.00 0.00 52 1008.5
20210730015055 77 29 0.0 0.0 0.00 0.00 0.00 53 1008.5
20210730014548 77 29 0.0 0.0 0.00 0.00 0.00 55 1008.5
20210730014034 77 29 0.0 0.0 0.00 0.00 0.00 57 1008.5
20210730013545 77 34 0.0 0.0 0.00 0.00 0.00 54 1008.5
20210730013041 78 36 0.0 0.0 0.00 0.00 0.00 52 1008.6
20210730012545 78 36 0.0 0.0 0.00 0.00 0.00 53 1008.5
20210730012053 77 36 0.0 0.0 0.00 0.00 0.00 54 1008.5
20210730011602 77 38 0.0 0.0 0.00 0.00 0.00 53 1008.5
20210730011053 77 41 0.0 0.0 0.00 0.00 0.00 52 1008.5
20210730010543 78 41 0.0 0.0 0.00 0.00 0.00 50 1008.6
20210730010040 78 41 0.0 0.0 0.00 0.00 0.00 49 1008.5
20210730005547 79 41 0.0 0.0 0.00 0.00 0.00 50 1008.6
20210730005054 79 41 0.0 0.0 0.00 0.00 0.00 50 1008.5
20210730004534 79 41 0.0 0.0 0.00 0.00 0.00 51 1008.6
20210730004043 79 41 0.0 0.0 0.00 0.00 0.00 51 1008.6
20210730003550 79 41 0.0 0.0 0.00 0.00 0.00 52 1008.5
20210730003049 79 41 0.0 0.0 0.00 0.00 0.00 53 1008.6
20210730002540 79 42 0.0 0.0 0.00 0.00 0.00 52 1008.6
20210730002043 79 41 0.0 0.0 0.00 0.00 0.00 52 1008.7
20210730001542 80 41 0.0 0.0 0.00 0.00 0.00 50 1008.6
20210730001051 80 41 0.0 0.0 0.00 0.00 0.00 49 1008.6
20210730000601 80 41 0.0 0.0 0.00 0.00 0.00 48 1008.6
20210730000053 80 41 0.0 0.0 0.00 0.00 0.00 48 1008.5
20210729235543 80 42 0.0 0.0 0.00 0.00 0.00 47 1008.6
20210729235052 80 42 0.0 0.0 0.00 0.00 0.00 48 1008.5
20210729234545 80 42 0.0 0.0 0.00 0.00 0.00 49 1008.5
20210729234052 80 42 0.0 0.0 0.00 0.00 0.00 49 1008.6
20210729233601 80 41 0.0 0.0 0.00 0.00 0.00 48 1008.5
20210729233039 81 42 0.0 0.0 0.00 0.00 0.00 48 1008.6
20210729232545 81 42 0.0 0.0 0.00 0.00 0.00 48 1008.6
20210729232052 81 42 0.0 0.0 0.00 0.00 0.00 48 1008.5
20210729231534 81 42 0.0 0.0 0.00 0.00 0.00 46 1008.5
20210729231037 81 42 0.0 0.0 0.00 0.00 0.00 46 1008.6
20210729230549 81 42 0.0 0.0 0.00 0.00 0.00 45 1008.7
20210729230046 82 41 0.0 0.0 0.00 0.00 0.00 46 1008.6
20210729225536 82 42 0.0 0.0 0.00 0.00 0.00 56 1008.6
20210729225101 83 42 0.0 0.0 0.00 0.00 0.00 55 1008.7
20210729224542 83 42 0.0 0.0 0.00 0.00 0.00 52 1008.7
20210729224051 83 42 0.0 0.0 0.00 0.00 0.00 46 1008.6
20210729223554 84 42 0.0 0.0 0.00 0.00 0.00 42 1008.7
20210729223036 84 42 0.0 0.0 0.00 0.00 0.00 43 1008.7
20210729222548 84 42 0.0 0.0 0.00 0.00 0.00 41 1008.6
20210729222043 84 42 0.0 0.0 0.00 0.00 0.00 40 1008.6
20210729221552 84 42 0.0 0.0 0.00 0.00 0.00 39 1008.6
20210729221040 84 42 0.0 0.0 0.00 0.00 0.00 40 1008.7
20210729220539 84 42 0.0 0.0 0.00 0.00 0.00 40 1008.6
20210729220044 84 42 0.0 0.0 0.00 0.00 0.00 41 1008.6
20210729215552 84 42 0.0 0.0 0.00 0.00 0.00 41 1008.6
20210729215059 84 42 0.0 0.0 0.00 0.00 0.00 41 1008.6
20210729214535 85 42 0.0 0.0 0.00 0.00 0.00 40 1008.6
20210729214045 85 42 0.0 0.0 0.00 0.00 0.00 40 1008.6
20210729213552 85 42 0.0 0.0 0.00 0.00 0.00 39 1008.6
20210729213047 86 42 0.0 0.0 0.00 0.00 0.00 39 1008.6
20210729212552 86 42 0.0 0.0 0.00 0.00 0.00 38 1008.6
20210729212058 86 42 0.0 0.0 0.00 0.00 0.00 38 1008.6
20210729211538 86 42 0.0 0.0 0.00 0.00 0.00 36 1008.6
20210729211045 86 42 0.0 0.0 0.00 0.00 0.00 38 1008.6
20210729210553 85 42 0.0 0.0 0.00 0.00 0.00 38 1008.6
20210729210051 85 42 0.0 0.0 0.00 0.00 0.00 39 1008.6
20210729205541 86 42 0.0 0.0 0.00 0.00 0.00 39 1008.6
20210729205045 85 42 0.0 0.0 0.00 0.00 0.00 40 1008.5
20210729204546 86 42 0.0 0.0 0.00 0.00 0.00 45 1008.5
20210729204034 86 42 0.0 0.0 0.00 0.00 0.00 43 1008.6
20210729203559 86 42 0.0 0.0 0.00 0.00 0.00 42 1008.5
20210729203037 86 42 0.0 0.0 0.00 0.00 0.00 44 1008.5
20210729202548 86 42 0.0 0.0 0.00 0.00 0.00 42 1008.6
20210729202048 87 42 0.0 0.0 0.00 0.00 0.00 41 1008.5
20210729201546 87 42 0.0 0.0 0.00 0.00 0.00 39 1008.5
20210729201034 87 42 0.0 0.0 0.00 0.00 0.00 38 1008.5
20210729200547 88 42 0.0 0.0 0.00 0.00 0.00 38 1008.4
20210729200044 88 42 0.0 0.0 0.00 0.00 0.00 38 1008.5
20210729195550 88 42 0.0 0.0 0.00 0.00 0.00 37 1008.4
20210729195039 88 42 0.0 0.0 0.00 0.00 0.00 38 1008.4